This is the latest recevied weather packets stored in our database for station/object N2PPN. If no packets are shown the sender has not sent any weather packets the latest 10 day(s).
| Time | Temp. | Humidity | Pressure | Rain* | Wind** | Luminosity | Snow |
|---|---|---|---|---|---|---|---|
| 1777559808 | 10° C | 97% | 1010.6 hPa | 0 mm | - | 149 W/m² | - |
| 1777559505 | 10° C | 97% | 1010.6 hPa | 0 mm | - | 124 W/m² | - |
| 1777559203 | 10° C | 97% | 1010.4 hPa | 0 mm | - | 113 W/m² | - |
| 1777558897 | 10° C | 97% | 1010.6 hPa | 0 mm | - | 116 W/m² | - |
| 1777558593 | 10° C | 98% | 1010.6 hPa | 0 mm | - | 98 W/m² | - |
| 1777558288 | 10° C | 98% | 1010.7 hPa | 0 mm | - | 83 W/m² | - |
| 1777557985 | 10° C | 98% | 1010.5 hPa | 0 mm | - | 113 W/m² | - |
| 1777557682 | 9.44° C | 98% | 1010.9 hPa | 0 mm | - | 113 W/m² | - |
| 1777557379 | 10° C | 97% | 1010.7 hPa | 0 mm | - | 80 W/m² | - |
| 1777557075 | 9.44° C | 97% | 1010.6 hPa | 0 mm | - | 64 W/m² | - |
| 1777556770 | 9.44° C | 97% | 1010.6 hPa | 0 mm | - | 62 W/m² | - |
| 1777556468 | 9.44° C | 97% | 1010.7 hPa | 0 mm | - | 59 W/m² | - |
| 1777556167 | 9.44° C | 97% | 1010.8 hPa | 0 mm | - | 65 W/m² | - |
| 1777555863 | 9.44° C | 97% | 1010.7 hPa | 0 mm | - | 61 W/m² | - |
| 1777555559 | 9.44° C | 97% | 1010.8 hPa | 0 mm | - | 59 W/m² | - |
| 1777555255 | 9.44° C | 97% | 1010.8 hPa | 0 mm | - | 55 W/m² | - |
| 1777554952 | 9.44° C | 97% | 1010.7 hPa | 0 mm | - | 52 W/m² | - |
| 1777554649 | 9.44° C | 97% | 1010.5 hPa | 0 mm | - | 40 W/m² | - |
| 1777554346 | 9.44° C | 98% | 1010.9 hPa | 0 mm | - | 47 W/m² | - |
| 1777554043 | 9.44° C | 98% | 1010.7 hPa | 0 mm | - | 52 W/m² | - |
| 1777553739 | 9.44° C | 98% | 1010.9 hPa | 0 mm | - | 55 W/m² | - |
| 1777553436 | 9.44° C | 98% | 1010.8 hPa | 0 mm | - | 45 W/m² | - |
| 1777553133 | 9.44° C | 98% | 1010.8 hPa | 0 mm | - | 39 W/m² | - |
| 1777552832 | 9.44° C | 98% | 1010.8 hPa | 0 mm | - | 49 W/m² | - |
| 1777552528 | 9.44° C | 98% | 1010.8 hPa | 0 mm | - | 71 W/m² | - |
* Rain latest hour (hover to see other rain measurements)
** Current wind speed in m/s (hover to see current wind gust speed)